Precipitable_Water
1.30 1.46 1.42 1.37 1.35 1.28 1.26 1.23 1.19 1.18 1.19 1.23 1.24 1.24 1.24 1.23 1.24 1.25 1.28 1.24 1.23 1.31 1.29 1.27 1.25 1.24 1.26 1.26 1.24 1.23 1.17 1.12 1.06 1.04 1.05 1.05 1.10 1.16 1.18 1.03 0.89 0.84 0.76
1.40 1.46 1.41 1.36 1.33 1.32 1.30 1.26 1.23 1.21 1.20 1.21 1.22 1.22 1.27 1.37 1.49 1.47 1.39 1.28 1.22 1.18 1.27 1.30 1.32 1.29 1.25 1.23 1.24 1.24 1.26 1.30 1.24 1.16 1.08 1.09 1.08 1.11 1.16 1.18 1.08 0.97 0.94
1.39 1.41 1.40 1.35 1.33 1.31 1.27 1.25 1.25 1.24 1.20 1.21 1.25 1.28 1.26 1.24 1.22 1.18 1.14 1.09 1.05 1.03 1.11 1.14 1.17 1.20 1.22 1.22 1.27 1.28 1.26 1.26 1.27 1.26 1.24 1.19 1.11 1.17 1.20 1.20 1.16 1.09 1.03
1.36 1.38 1.37 1.35 1.34 1.31 1.28 1.27 1.28 1.26 1.25 1.14 1.04 0.99 0.97 0.94 0.91 0.87 0.82 0.80 0.78 0.78 0.80 0.83 0.86 0.88 0.92 0.98 1.07 1.18 1.32 1.44 1.41 1.29 1.25 1.24 1.21 1.19 1.24 1.26 1.29 1.28 1.21
1.30 1.35 1.36 1.37 1.37 1.33 1.34 1.32 1.30 1.22 1.07 0.93 0.84 0.76 0.71 0.67 0.61 0.57 0.55 0.54 0.55 0.57 0.58 0.61 0.63 0.64 0.66 0.69 0.74 0.83 0.93 1.01 1.12 1.24 1.25 1.25 1.23 1.20 1.24 1.31 1.36 1.35 1.29
1.28 1.34 1.37 1.41 1.39 1.37 1.31 1.30 1.19 1.04 0.87 0.77 0.67 0.60 0.53 0.48 0.48 0.51 0.54 0.56 0.56 0.55 0.56 0.57 0.57 0.57 0.57 0.57 0.58 0.59 0.62 0.66 0.70 0.79 1.01 1.14 1.18 1.19 1.21 1.24 1.20 1.25 1.24
1.27 1.35 1.38 1.43 1.46 1.39 1.28 1.16 1.00 0.83 0.71 0.61 0.51 0.47 0.46 0.48 0.52 0.55 0.56 0.56 0.56 0.56 0.58 0.61 0.62 0.61 0.61 0.62 0.63 0.63 0.60 0.55 0.52 0.50 0.54 0.64 0.83 1.02 1.14 1.21 1.26 1.28 1.45
1.27 1.37 1.43 1.49 1.42 1.33 1.18 1.00 0.78 0.67 0.55 0.49 0.50 0.50 0.50 0.51 0.54 0.56 0.55 0.56 0.58 0.57 0.61 0.63 0.64 0.61 0.62 0.62 0.62 0.60 0.58 0.57 0.57 0.53 0.47 0.49 0.52 0.58 0.74 0.95 1.14 1.32 1.31
1.37 1.36 1.41 1.42 1.33 1.22 1.01 0.78 0.65 0.53 0.51 0.51 0.51 0.50 0.51 0.52 0.54 0.57 0.55 0.57 0.58 0.58 0.63 0.64 0.63 0.64 0.61 0.58 0.57 0.55 0.54 0.53 0.52 0.52 0.52 0.52 0.53 0.59 0.60 0.68 0.88 1.16 1.27
1.33 1.32 1.33 1.32 1.24 1.04 0.83 0.65 0.53 0.52 0.51 0.52 0.51 0.49 0.49 0.51 0.51 0.52 0.52 0.54 0.56 0.58 0.57 0.58 0.59 0.60 0.57 0.56 0.56 0.56 0.55 0.53 0.53 0.52 0.51 0.51 0.57 0.62 0.66 0.85 0.84 1.02 1.16
1.34 1.29 1.30 1.25 1.06 0.87 0.73 0.60 0.56 0.54 0.53 0.52 0.49 0.48 0.47 0.48 0.48 0.48 0.50 0.51 0.54 0.56 0.55 0.54 0.55 0.55 0.54 0.53 0.54 0.55 0.55 0.54 0.54 0.55 0.56 0.57 0.61 0.67 0.90 0.86 0.93 0.96 1.04
1.25 1.25 1.24 1.07 0.91 0.82 0.71 0.58 0.56 0.53 0.53 0.52 0.49 0.45 0.44 0.45 0.46 0.45 0.46 0.49 0.53 0.49 0.46 0.50 0.52 0.51 0.49 0.50 0.53 0.55 0.55 0.56 0.56 0.57 0.59 0.62 0.73 0.79 0.82 0.78 0.81 0.91 1.04
1.28 1.21 1.16 1.01 0.92 0.80 0.67 0.58 0.56 0.54 0.55 0.52 0.47 0.42 0.44 0.44 0.43 0.45 0.46 0.48 0.48 0.45 0.45 0.46 0.45 0.41 0.38 0.45 0.51 0.54 0.56 0.57 0.58 0.61 0.64 0.66 0.74 0.77 0.77 0.77 0.78 0.81 0.89
1.27 1.21 1.07 1.02 0.92 0.80 0.66 0.58 0.56 0.54 0.53 0.49 0.44 0.44 0.44 0.42 0.42 0.44 0.45 0.45 0.45 0.44 0.42 0.44 0.40 0.36 0.34 0.40 0.49 0.53 0.56 0.58 0.61 0.63 0.68 0.71 0.79 0.80 0.83 0.84 0.83 0.83 0.83
1.29 1.27 1.13 1.08 0.97 0.81 0.63 0.57 0.54 0.54 0.52 0.48 0.44 0.44 0.45 0.44 0.43 0.44 0.44 0.44 0.43 0.43 0.43 0.42 0.40 0.36 0.32 0.31 0.43 0.50 0.52 0.56 0.60 0.65 0.70 0.74 0.81 0.85 0.88 0.89 0.88 0.87 0.87
1.35 1.31 1.22 1.12 1.00 0.81 0.65 0.58 0.54 0.54 0.51 0.48 0.44 0.45 0.47 0.47 0.45 0.44 0.43 0.43 0.42 0.43 0.43 0.42 0.40 0.37 0.34 0.30 0.34 0.46 0.49 0.55 0.59 0.64 0.70 0.79 0.83 0.86 0.88 0.88 0.86 0.85 0.83
1.37 1.34 1.23 1.12 1.00 0.82 0.68 0.60 0.56 0.53 0.52 0.48 0.45 0.47 0.48 0.48 0.47 0.45 0.44 0.43 0.44 0.45 0.42 0.41 0.40 0.38 0.33 0.30 0.30 0.43 0.49 0.54 0.60 0.64 0.70 0.79 0.83 0.86 0.88 0.88 0.83 0.78 0.78
1.35 1.27 1.21 1.13 0.98 0.83 0.75 0.63 0.58 0.55 0.52 0.49 0.46 0.47 0.48 0.49 0.48 0.45 0.44 0.45 0.46 0.45 0.43 0.40 0.38 0.34 0.33 0.31 0.30 0.42 0.47 0.56 0.60 0.63 0.68 0.70 0.71 0.74 0.79 0.80 0.79 0.79 0.77
1.32 1.28 1.19 1.11 0.97 0.84 0.79 0.66 0.60 0.57 0.53 0.48 0.47 0.46 0.47 0.49 0.48 0.45 0.45 0.48 0.47 0.45 0.44 0.42 0.39 0.38 0.33 0.32 0.35 0.44 0.49 0.55 0.63 0.66 0.65 0.65 0.67 0.70 0.72 0.72 0.72 0.71 0.75
1.31 1.25 1.15 1.08 0.94 0.86 0.80 0.69 0.61 0.58 0.53 0.51 0.48 0.47 0.48 0.49 0.47 0.46 0.49 0.49 0.47 0.46 0.45 0.44 0.40 0.40 0.39 0.37 0.35 0.45 0.49 0.54 0.61 0.63 0.62 0.64 0.66 0.69 0.71 0.67 0.63 0.63 0.63
1.24 1.18 1.10 0.99 0.92 0.85 0.75 0.62 0.56 0.52 0.52 0.51 0.50 0.50 0.50 0.48 0.48 0.48 0.51 0.49 0.50 0.47 0.46 0.45 0.42 0.39 0.39 0.43 0.36 0.36 0.45 0.51 0.53 0.57 0.59 0.57 0.59 0.68 0.68 0.67 0.62 0.63 0.63
1.13 1.09 0.99 0.93 0.87 0.80 0.70 0.63 0.59 0.56 0.54 0.52 0.50 0.50 0.51 0.49 0.50 0.55 0.50 0.49 0.51 0.49 0.48 0.46 0.44 0.40 0.43 0.48 0.38 0.36 0.26 0.36 0.44 0.41 0.53 0.55 0.57 0.60 0.60 0.62 0.64 0.63 0.63
0.98 0.95 0.90 0.87 0.84 0.75 0.67 0.63 0.60 0.59 0.55 0.47 0.48 0.49 0.49 0.52 0.58 0.53 0.52 0.53 0.53 0.51 0.47 0.47 0.47 0.44 0.40 0.46 0.49 0.41 0.29 0.24 0.32 0.40 0.46 0.51 0.53 0.55 0.57 0.57 0.61 0.59 0.58
0.75 0.68 0.68 0.74 0.75 0.68 0.64 0.59 0.55 0.50 0.43 0.47 0.49 0.49 0.53 0.57 0.50 0.52 0.52 0.51 0.50 0.51 0.49 0.50 0.52 0.49 0.48 0.41 0.47 0.50 0.50 0.46 0.32 0.28 0.39 0.41 0.48 0.46 0.48 0.50 0.50 0.52 0.54
0.62 0.58 0.59 0.61 0.60 0.59 0.59 0.59 0.54 0.49 0.49 0.52 0.49 0.53 0.48 0.48 0.50 0.50 0.48 0.47 0.47 0.48 0.49 0.48 0.49 0.50 0.52 0.47 0.46 0.46 0.46 0.47 0.46 0.38 0.30 0.40 0.46 0.45 0.44 0.43 0.43 0.45 0.53
0.60 0.56 0.55 0.53 0.53 0.57 0.57 0.56 0.53 0.50 0.49 0.48 0.49 0.40 0.43 0.46 0.46 0.45 0.43 0.43 0.45 0.45 0.45 0.45 0.47 0.48 0.50 0.50 0.51 0.49 0.46 0.42 0.40 0.40 0.36 0.37 0.39 0.49 0.53 0.48 0.46 0.49 0.54
Wind_Speed
9 9 7 6 5 5 5 4 4 4 5 5 5 6 6 7 8 8 9 9 10 10 10 10 11 11 11 11 11 10 10 10 11 11 11 11 11 11 11 10 11 11 11
11 9 7 6 5 4 4 4 4 4 4 4 5 6 6 7 7 8 9 10 10 11 11 11 11 12 12 12 12 12 12 12 12 12 12 12 12 13 13 13 12 12 12
11 9 7 6 5 4 3 3 3 3 4 4 5 6 6 7 8 8 9 10 11 11 12 12 13 13 13 13 13 13 13 13 13 14 14 14 14 14 14 15 15 15 14
11 9 7 6 4 3 3 2 2 3 3 4 5 6 7 7 8 9 10 10 11 12 13 13 14 14 14 14 14 14 14 15 15 15 15 16 16 16 16 16 16 17 17
10 9 7 6 4 3 2 1 2 3 4 4 5 6 7 8 9 9 10 11 12 13 14 15 15 15 15 15 15 15 15 16 16 16 16 17 17 17 17 18 19 19 19
10 8 7 5 3 2 1 1 2 3 4 4 5 6 7 8 9 10 11 12 13 14 15 16 16 16 16 16 17 17 18 18 19 19 19 20 20 20 21 21 21 21 20
9 8 6 4 3 1 1 2 2 3 4 5 6 7 8 8 9 10 12 13 14 15 16 16 17 17 17 17 18 19 20 20 21 22 23 23 24 24 24 24 24 24 24
9 8 6 4 3 1 1 2 3 4 5 6 6 7 8 9 10 11 13 14 15 16 17 17 18 18 19 19 20 20 21 22 23 24 25 25 26 27 27 27 27 27 27
9 8 6 5 3 3 3 3 4 4 5 6 7 8 8 9 10 12 14 15 17 18 18 19 20 20 20 21 22 23 24 25 25 25 26 27 28 28 29 30 30 29 29
9 8 7 6 5 5 5 4 5 5 6 7 8 8 9 10 11 13 15 17 18 19 19 20 21 21 22 24 24 25 26 26 27 28 28 29 29 29 29 29 29 29 28
9 8 8 7 6 6 6 5 5 6 7 7 8 9 10 11 12 14 16 18 19 19 21 21 22 23 25 26 26 27 28 28 29 29 30 30 30 30 28 28 27 28 28
10 9 8 7 7 7 6 6 6 7 7 8 9 10 10 12 13 15 17 18 19 20 21 22 24 25 26 27 28 29 29 30 31 31 31 31 30 29 29 29 29 28 29
11 10 9 8 8 7 7 7 8 8 9 9 10 10 11 12 14 15 17 18 20 22 23 24 25 27 29 29 30 31 31 31 32 31 31 30 28 28 28 28 28 28 29
13 11 9 9 9 9 8 8 9 9 10 10 10 11 11 13 15 16 18 20 21 23 24 25 27 29 30 31 32 32 32 31 29 29 28 28 26 25 25 24 25 26 28
14 12 11 10 10 10 9 9 10 10 10 10 11 12 13 14 16 17 19 21 23 24 26 27 29 30 32 33 33 32 30 29 28 27 26 24 22 21 20 21 22 23 25
15 14 13 12 11 11 11 11 11 11 11 11 12 13 14 15 17 18 20 22 24 26 27 29 30 31 33 33 32 29 27 26 25 23 21 19 18 19 18 19 20 21 22
17 15 15 14 13 13 12 12 12 12 12 13 14 15 15 16 18 20 21 23 25 27 28 30 31 32 32 32 29 26 24 22 21 19 17 17 17 17 17 18 18 19 19
18 17 16 15 15 14 14 14 14 14 14 15 15 16 17 18 19 21 23 24 26 28 29 30 31 32 31 29 26 23 21 19 18 16 16 16 15 15 16 16 17 17 16
19 18 18 17 16 16 15 15 15 15 15 16 17 17 18 19 21 22 24 26 27 28 29 30 31 30 29 27 24 22 19 18 16 16 16 15 15 15 15 16 16 16 15
20 19 18 18 17 17 16 16 16 17 17 18 18 19 20 21 22 23 25 26 28 29 30 30 30 28 25 25 23 20 18 18 17 16 16 16 15 14 15 16 16 15 14
20 19 19 18 18 18 17 17 18 18 19 19 19 20 21 22 23 24 26 27 28 29 30 29 28 25 23 24 22 20 19 18 17 17 16 16 15 15 15 16 15 15 14
19 19 19 19 18 19 18 19 19 19 19 20 21 21 22 23 24 26 27 28 29 30 30 28 25 23 22 23 22 20 20 18 18 18 16 16 15 16 16 16 16 16 14
18 19 20 20 20 20 20 20 20 20 21 21 21 22 22 24 25 27 28 29 30 30 29 25 24 23 23 23 22 20 19 19 20 18 17 17 17 18 18 18 16 17 15
18 19 20 20 21 21 21 21 21 21 21 21 22 23 24 25 26 27 29 30 31 30 26 24 24 24 23 23 22 21 20 20 18 18 17 18 17 20 20 19 19 18 16
18 18 19 20 20 21 21 21 21 21 21 22 23 24 25 25 27 29 30 31 30 26 24 25 26 25 24 24 23 22 22 21 20 19 20 18 20 19 19 20 18 18 15
18 18 18 19 19 20 20 21 21 21 22 23 24 24 26 27 29 31 31 30 27 26 26 26 26 26 25 25 24 24 24 23 22 21 21 22 22 20 21 19 19 17 16
Wind_Direction
162 154 147 138 127 114 102 91 80 68 58 47 35 25 18 13 9 7 8 6 3 357 353 350 347 344 341 337 333 330 327 325 323 319 316 313 311 308 308 306 301 300 298
155 153 148 141 132 120 106 91 77 61 45 30 17 10 5 5 7 7 4 359 356 354 350 346 342 338 335 331 328 325 321 318 315 313 311 308 305 301 298 297 297 295 294
155 152 148 142 134 123 108 91 69 45 27 16 13 12 8 4 2 357 354 352 349 347 345 342 338 336 332 327 323 320 317 314 311 309 307 304 301 298 297 292 291 291 290
155 152 147 142 134 125 109 87 53 25 18 6 2 359 357 355 353 351 350 348 346 344 341 337 334 330 327 324 322 320 319 314 308 306 305 303 300 296 294 291 287 287 286
159 155 150 141 132 120 104 68 36 13 0 358 356 355 354 352 350 349 347 345 343 341 338 335 332 329 327 324 322 320 316 313 312 309 304 303 301 297 293 293 287 285 284
165 162 159 154 141 120 77 43 355 349 350 349 347 346 346 346 346 346 346 343 341 338 335 333 331 327 324 321 318 315 312 309 306 304 301 299 297 295 292 290 290 283 283
170 169 170 169 159 141 9 334 335 335 337 338 338 338 339 341 343 342 341 341 340 339 337 335 331 328 325 322 320 316 312 308 305 302 299 297 294 292 290 289 288 281 281
179 179 181 182 188 229 310 321 323 327 328 329 332 335 335 335 336 338 339 338 337 336 334 333 331 327 323 321 318 316 313 310 307 303 299 297 294 292 288 287 286 284 282
186 190 196 202 225 260 290 304 311 317 324 325 326 329 331 332 332 335 335 335 335 334 331 329 329 325 322 319 317 314 312 309 307 303 300 298 296 293 289 287 283 283 282
196 203 209 223 245 263 277 290 299 309 316 321 324 325 327 329 331 332 334 334 333 332 331 328 327 325 322 319 316 314 311 309 306 303 301 298 295 293 291 289 283 281 281
204 214 222 237 253 259 267 278 293 303 310 316 319 322 324 326 329 330 331 333 332 331 330 330 328 325 322 319 317 314 311 308 305 303 301 298 296 293 292 290 287 283 281
211 219 228 240 250 256 263 274 288 299 308 312 316 319 321 325 328 329 331 332 333 333 332 330 328 326 324 321 317 315 311 309 306 303 301 299 297 293 291 289 286 283 282
216 223 232 245 249 257 265 271 283 293 303 310 313 317 320 324 328 330 331 333 333 332 331 329 328 326 324 322 318 316 313 310 308 306 303 301 298 296 293 291 288 285 283
220 228 238 248 252 258 264 269 279 289 299 305 311 315 319 322 325 327 329 330 330 330 330 329 328 327 325 323 319 317 314 313 312 309 306 304 301 300 299 297 294 291 289
225 231 242 251 254 257 264 271 279 288 295 301 307 312 315 318 321 324 327 328 329 329 329 328 328 327 326 324 321 319 318 315 314 312 310 309 307 306 306 305 304 301 298
229 235 243 249 255 257 263 269 279 285 291 298 304 308 312 315 319 323 325 326 327 328 328 328 328 327 326 326 324 322 320 320 320 318 317 318 316 314 314 313 312 311 309
233 241 246 250 254 258 261 269 277 282 288 296 301 304 308 313 316 319 322 324 325 327 327 328 327 328 328 329 328 325 326 327 329 327 326 325 324 321 319 320 319 319 319
237 243 248 251 254 258 262 268 275 281 288 294 299 302 305 309 313 316 319 322 323 325 325 326 328 329 330 331 331 330 329 331 332 331 330 330 330 328 328 328 327 325 322
238 244 248 251 254 258 261 267 274 281 287 293 296 300 303 306 310 313 316 319 321 323 324 325 327 329 330 333 332 334 334 333 332 329 328 328 328 329 331 334 333 335 329
239 244 248 250 255 258 262 268 274 280 286 291 295 299 302 305 309 312 315 318 320 321 322 324 325 327 330 333 331 332 332 333 329 326 323 323 322 323 326 330 332 333 338
238 244 247 250 255 258 262 268 275 279 285 289 292 297 300 303 307 310 313 316 318 320 321 322 323 326 328 333 331 328 325 325 328 324 321 320 319 318 320 325 328 328 328
240 245 247 252 255 259 263 269 275 280 284 288 292 296 299 302 305 308 311 313 315 318 319 320 320 322 322 327 330 325 324 320 319 316 316 319 315 314 316 319 321 322 320
245 248 251 254 256 260 263 269 275 279 284 287 291 295 298 302 305 308 310 311 313 314 315 315 316 318 318 320 324 325 323 318 319 317 311 311 313 309 308 310 313 315 312
248 253 255 256 257 260 264 269 274 278 282 285 290 294 298 302 304 307 309 310 311 310 309 309 312 313 313 313 316 315 318 317 316 315 313 310 310 312 306 301 303 304 301
251 256 257 257 258 261 264 269 274 277 281 286 290 294 298 301 304 306 308 310 309 308 306 306 308 309 309 309 309 310 311 312 309 307 308 308 309 311 309 305 300 299 293
255 258 258 258 259 261 265 269 274 278 282 287 290 294 297 300 303 305 307 307 306 304 304 304 304 304 304 304 303 303 303 304 305 303 303 303 302 305 307 302 298 297 289